Regional Weather Roundup
Issued by NWS

Home | Current Version | Previous Version | Text Only | Print | Product List | Glossary Off
Versions: 1 2 3 4 5 6 7 8 9 10 11 12 13 14 15 16 17 18 19 20 21 22 23 24 25 26 27 28 29 30 31 32 33 34 35 36 37 38 39 40 41 42 43 44 45 46 47 48 49 50

000
ASUS44 KMEG 250300
RWRTN
TENNESSEE HOURLY STATE WEATHER ROUNDUP
NATIONAL WEATHER SERVICE MEMPHIS TN
1000 PM CDT SUN MAY 24 2015

TNZ002-004-019-021-049-052-054-088>092-250400-
WEST TENNESSEE

CITY           SKY/WX    TMP DP  RH WIND       PRES   REMARKS
MEMPHIS INTL   TSTM      71  67  87 S14       30.02R
NWS MEMPHIS      N/A     70 N/A N/A MISG        N/A
JACKSON        RAIN      70  66  87 S8        30.07R FOG
DYERSBURG      CLOUDY    72  54  53 S10G16    30.04R
PARIS          PTCLDY    68  64  88 SE13      30.07R
LEXINGTON      MOCLDY    70  64  83 SE3       30.08S
$$

TNZ008-025-027-028-033-062-065-066-250400-
NORTH MIDDLE TENNESSEE

CITY           SKY/WX    TMP DP  RH WIND       PRES   REMARKS
NASHVILLE      CLOUDY    72  67  84 S9        30.14R
CLARKSVILLE    CLOUDY    73  66  78 S9        30.10R
COOKEVILLE     CLEAR     73  61  64 S5        30.19R
CROSSVILLE     PTCLDY    71  55  56 SE5       30.25R
$$

TNZ061-075-076-078-094-096-097-250400-
SOUTH MIDDLE TENNESSEE

CITY           SKY/WX    TMP DP  RH WIND       PRES   REMARKS
FAYETTEVILLE   MOCLDY   N/A N/A N/A MISG      30.18R
TULLAHOMA      MOCLDY    68  64  88 SE8       30.21R
WINCHESTER     MOCLDY    73  63  68 SW8       30.22R
MCMINNVILLE    PTCLDY    75  61  60 VRB5      30.19R
COLUMBIA       CLEAR     72  68  88 S3        30.12R
SHELBYVILLE    MOCLDY    70  70 100 SE5       30.18S
$$

TNZ017-018-042-046-047-250400-
NORTHEAST TENNESSEE

CITY           SKY/WX    TMP DP  RH WIND       PRES   REMARKS
TRI CITIES     PTCLDY    71  50  47 CALM      30.29R
ELIZABETHTON   CLEAR     61  52  72 CALM      30.31R
$$

TNZ012-013-036-069-073-074-250400-
CENTRAL EAST TENNESSEE

CITY           SKY/WX    TMP DP  RH WIND       PRES   REMARKS
KNOXVILLE      PTCLDY    73  51  46 SE8       30.23R
OAK RIDGE      CLEAR     75  54  47 CALM      30.25R
GATLINBURG     CLEAR     66  54  63 CALM      30.24R
$$

TNZ083-085-099-250400-
SOUTHEAST TENNESSEE

CITY           SKY/WX    TMP DP  RH WIND       PRES   REMARKS
CHATTANOOGA    MOCLDY    76  57  51 SE7       30.22R
$$

SKY/WX REPORTED AS FAIR MEANS FEW OR NO CLOUDS BELOW
12 THOUSAND FEET.



USA.gov is the U.S. government's official web portal to all federal, state and local government web resources and services.